カタログに戻る

STARLINK-30437

運用中通信VLEO
NORAD 58036·PAYLOAD·🇺🇸 United States

打ち上げ Oct 9, 2023 から Vandenberg Space Force Base

Loading…

次のパス (今後24時間)

TLE

最新Source: CelesTrak SupGP

元期: Sep 14, 2026, 22:11 UTC

1 58036C 23156J   26257.92479167  .00045342  00000+0  14583-2 0  2573
2 58036  53.1571 278.7967 0001275  80.2128  44.1463 15.31675530    17

AllMySatでSTARLINK-30437をリアルタイム追跡

Download on the App Store